Regional Weather Roundup
Issued by NWS Wakefield, VA

Home | Current Version | Previous Version | Graphics & Text | Print | Product List | Glossary On
Versions: 1 2 3 4 5 6 7 8 9 10 11 12 13 14 15 16 17 18 19 20 21 22 23 24 25 26 27 28 29 30 31 32 33 34 35 36 37 38 39 40 41 42 43 44 45 46 47 48 49 50
000
ASUS41 KAKQ 262015
RWRAKQ

REGIONAL WEATHER ROUNDUP
NATIONAL WEATHER SERVICE WAKEFIELD VA
400 PM EDT WED AUG 26 2015

Note: "fair" indicates few or no clouds below 12,000 feet with no
significant weather and/or obstructions to visibility. * = Denotes
station may not report precipitation (e.g., rain,snow,etc.),
thunder or fog.

VAZ042-051-052>054-056-262100-
NORTHERN VIRGINIA

CITY           SKY/WX    TMP DP  RH WIND       PRES   REMARKS
WASH NATIONAL  PTSUNNY   81  55  40 NW10      30.02F
DULLES         PTSUNNY   76  51  41 W6        30.03F
FORT BELVOIR   SUNNY     79  55  43 W7        30.02F
QUANTICO       PTSUNNY   80  55  42 VRB6      30.03F
FREDERICKSBRG* SUNNY     81  57  44 CALM      30.01F
STAFFORD*      MOSUNNY   78  55  44 N6        30.07S
WARRENTON      SUNNY     80  58  47 NW5       30.03F
CULPEPER*      SUNNY     77  56  49 N5        30.04F
MANASSAS*      SUNNY     79  54  41 N8        30.03F
LEESBURG*      PTSUNNY   79  55  44 NW9       30.04F
WINCHESTER     MOSUNNY   79  48  34 W6        30.04F
FRONT ROYAL*   CLOUDY    73  52  46 NW5       30.03F
LURAY*         CLOUDY    73  50  43 N5        30.04S
$$

VAZ048-049-060>072-079>083-262100-
CENTRAL AND SOUTH CENTRAL VIRGINIA

CITY           SKY/WX    TMP DP  RH WIND       PRES   REMARKS
RICHMOND       PTSUNNY   80  58  46 E5        30.01F
CHESTERFIELD*  CLOUDY    81  52  36 SE6       30.02F
PETERSBURG*    CLOUDY    82  65  56 N6        30.00F
HANOVER        PTSUNNY   79  59  50 N6        30.03F
TAPPAHANNOCK*  MOSUNNY   80  51  36 CALM      30.02S
QUINTON*       FAIR      80  62  54 NE5       30.00F
CHARLOTTSVILLE SUNNY     78  56  46 CALM      30.03F
GORDONSVILLE*  FAIR      78  58  50 CALM      30.02F
ORANGE*        PTSUNNY   81  55  41 CALM      30.04F
LOUISA*        CLOUDY    79  57  47 CALM      30.02F
BUMPASS*       CLOUDY    77  58  51 N3        30.03S
FARMVILLE*     CLOUDY    82  55  40 CALM      30.00F
CREWE*         CLOUDY   N/A N/A N/A CALM      30.01F
FORT PICKETT*  FAIR      81  60  49 E6        30.01F
CHASE CITY*    CLOUDY    81  64  56 NE3       30.01F
CLARKSVILLE*   CLOUDY    77  63  61 N3        30.00F
SOUTH HILL*    CLOUDY    75  64  67 NE3       30.06F
LAWRENCEVILLE* FAIR      79  64  61 NE3       29.99F
EMPORIA*       MOSUNNY   79  64  61 N3        30.00F
$$

VAZ088>098-262100-
SOUTHEAST VIRGINIA

CITY           SKY/WX    TMP DP  RH WIND       PRES   REMARKS
NORFOLK        CLOUDY    79  65  62 NE10      29.98F
VIRGINIA BEACH CLOUDY    80  68  66 NE10      29.97F
NORFOLK NAVAL  PTSUNNY   79  64  60 NE12      30.00S
WEST POINT*    MOSUNNY   85  56  36 N3        30.01S
SALUDA*        FAIR      80  61  52 CALM      30.00S
NEWPORT NEWS   CLOUDY    80  62  54 N7        29.99F
LANGLEY AFB    PTSUNNY   79  64  58 NE10      29.98F
FORT EUSTIS    PTSUNNY   79  60  52 E5        29.98S
WILLIAMSBURG*  SUNNY     84  64  51 CALM      30.00S
HR EXEC AP*      N/A     79  66  65 N7        30.00F
FRANKLIN*      PTSUNNY   78  65  65 NE10      29.99F
WAKEFIELD      PTSUNNY   80  64  58 NE5       29.99F
$$

VAZ020-022-025-037-045-262100-
WEST CENTRAL AND SOUTHWEST VIRGINIA

CITY           SKY/WX    TMP DP  RH WIND       PRES   REMARKS
STAUNTON*      PTSUNNY   80  51  35 NE5       30.06S
WAYNESBORO*    MOCLDY    77  53  43 CALM      30.05F
HOT SPRINGS VA MOSUNNY   67  51  57 NW6       30.14S
LYNCHBURG      MOSUNNY   79  56  45 VRB3      30.03F
DANVILLE       PTSUNNY   81  61  50 VRB5      30.01F
SOUTH BOSTON*  CLOUDY    80  60  50 E3        30.00F
MARTINSVILLE   PTSUNNY   83  55  38 SE3       30.05F
ROANOKE        PTSUNNY   80  56  43 VRB3      30.05F
BLACKSBURG     SUNNY     74  59  58 W6        30.12F
DUBLIN*        MOSUNNY   75  55  51 NW5       30.10F
MARION*        PTSUNNY   75  55  50 NW5       30.12F
HILLSVILLE*    PTSUNNY   71  57  61 CALM      30.10F
RICHLANDS*     MOCLDY    68  54  61 W3        30.13F
WISE*          PTSUNNY   70  50  49 N6        30.16S
ABINGDON*      PTSUNNY   74  51  44 CALM      30.09F
$$

MDZ021>025-VAZ099-100-262100-
SOUTHERN MARYLAND AND THE DELMARVA PENINSULA

CITY           SKY/WX    TMP DP  RH WIND       PRES   REMARKS
PATUXENT RIVER MOSUNNY   78  55  44 NE10      30.01S
BAY BRIDGE APT   N/A     77  50  38 N3        30.01F
LEONARDTOWN    PTSUNNY   77  55  47 CALM      30.03S
DOVER          SUNNY     80  59  48 VRB7      29.98F
GEORGETOWN     PTSUNNY   83  54  36 VRB6      29.98F
EASTON         MOSUNNY   81  54  39 NW8       30.05S
CAMBRIDGE      SUNNY     79  52  38 NW8       30.00S
SALISBURY      SUNNY     81  57  43 VRB7      29.98F
OCEAN CITY     MOSUNNY   80  55  42 E8        29.98F
WALLOPS ISLAND MOSUNNY   82  58  43 S7        29.99F
ACCOMACK*      PTSUNNY   77  50  38 N7        29.99S
$$

NCZ012>017-030>032-262100-
NORTH CENTRAL AND EASTERN NORTH CAROLINA

CITY           SKY/WX    TMP DP  RH WIND       PRES   REMARKS
ROANOKE RAPIDS CLOUDY    75  64  69 NE8       29.98F
RALEIGH        MOSUNNY   81  65  58 N7        29.98F
ELIZABETH CITY CLOUDY    81  67  62 NE13      29.96F
AHOSKIE*       MOSUNNY   77  69  75 N7        29.97F
EDENTON*       PTSUNNY   82  69  63 NE10      29.95F
CURRITUCK*     CLOUDY    81  63  54 NE7       29.98S
KILL DEVIL HLS CLOUDY    85  68  56 E6        29.95S
MANTEO         MOSUNNY   83  69  63 NE12      29.95F
CAPE HATTERAS  CLOUDY    83  75  77 NE6       29.94F
TARBORO*       MOCLDY    83  70  63 NE7       29.97F
GOLDSBORO      MOSUNNY   86  75  69 N13       29.92F HX  95
WASHINGTON     MOSUNNY   82  72  71 NE8       29.94F
GREENVILLE     PTSUNNY   82  73  74 NE13      29.96F HAZE
NEW BERN       PTSUNNY   84  73  69 SE9       29.92F THUNDER
WILMINGTON     MOSUNNY   86  74  67 SE9       29.91F
$$

VAZ048-262100-
ELSEWHERE

CITY           SKY/WX    TMP DP  RH WIND       PRES   REMARKS
HARRISBURG PA  PTSUNNY   76  52  43 W3        30.01F
BALTIMORE      MOSUNNY   78  54  43 NW13      30.01F
ANNAPOLIS      MOSUNNY   78  53  41 NW5       30.00F
ANDREWS AFB    MOSUNNY   77  53  42 NW10      30.01F
PHILADELPHIA   MOSUNNY   81  51  35 W13G24    29.98F
HENDERSON NC   PTSUNNY   73  64  73 N5        30.01S
GREENSBORO     PTSUNNY   79  58  48 NE12      30.01F
ROCKY MOUNT    MOSUNNY   84  69  60 N10       29.96F
$$

VAZ100-262100-
MARINE

STATION/POSITION TIME  TEMP    WIND        PRES    WAVE   SWELL
                       AIR SEA DIR/SP/G            HT/PER HT/PER
                 (UTC) (F)     (DEG/KT/KT) (MB)    (FT/S) (FT/S)
BRANDYWINE LGT   1900   75 76  360/  9/ 10 1016.0F
CAPE MAY NJ      1900   78 80  310/  9/ 11 1015.5F
LEWES DE         1900   76 76   20/  9/ 10 1015.8F
15NM E FENWICK I 1950   75 79  360/  6/  8 1015.4F   3/ 9   2/ 9
OCEAN-CITY-INLET 1900   78 78  100/  7/  9 1015.1F
WACHAPREAGUE VA  1900   78 81   60/  9/ 11 1015.6F
THOMAS POINT MD  1900   74 80   70/  2/  3 1017.0
GOOSES REEF MD   2000   76 80   40/  6/  8 1017.2F
COVE POINT MD    1900   74      40/  9/ 11 1017.3F
SOLOMONS ISLAND  1900      82                N/A
BISHOPS HEAD MD  1900   79 78   50/  4/  6 1015.1F
PINEY POINT MD   1900          320/ 12/ 13   N/A
POTOMAC MD       2000   78 81   30/  8/ 12 1015.1F   1
CAMBRIDGE MD     1900   76 80  310/ 10/ 13 1015.5F
LEWISETTA VA     1900   78 80  360/  4/  6 1015.8F
RAPPAHANNOCK LGT 1900          350/ 13/ 14 1016.2F
STINGRAY PT      2000   78 81   30/ 10/ 12 1016.3S   1/ 2
YORK RVR RNG VA  1900   77      30/ 10/ 11 1015.1F
YORKTOWN VA      1900   77 81   40/  7/  9 1015.4F
JAMESTOWN VA     2000   79 83   90/  4/  8   N/A
DOMINION TERM VA 1900   78      70/  9/ 12 1015.6F
KIPTOPEKE VA     1900      81   90/  9/ 13   N/A
CHES BAY BRIDGE  1900   78 80   30/ 10/ 11 1015.0F
CAPE HENRY VA    1900   77      30/ 12/ 14   N/A
CHESAPEAKE LGHT  1900   78      40/ 10/ 11 1015.7F
WILLOUBY STN VA  1900   77      30/ 12/ 14 1016.5F
CAPE HENRY BUOY  1928      80                N/A     3/ 9   2/11
1ST LANDING BUOY 2000      80              1015.0F   2/ 3
CAPE CHARLES BUO 1926      80                N/A     3/10   3/10
OFFSHORE WE BUOY 1911      79                N/A     3/11   3/11
64NM E OF VA BCH 1950   80 81   70/ 12/ 14 1014.1S   3/10   2/10
DUCK PIER NC     1900   80 80   60/ 13/ 14 1014.0F
44100 DUCK FRF   1924      80                N/A     4/ 5   2/11
44056 DUCK FRF   1911      80                N/A     4/11   2/11
OREGON INLET NC  1900   81 81   50/ 10/ 13 1014.2F
HATTERAS NC      1900   82 83  110/  5/  6 1013.7F



USA.gov is the U.S. government's official web portal to all federal, state and local government web resources and services.